Time,TemperatureF,DewpointF,PressureIn,WindDirection,WindDirectionDegrees,WindSpeedMPH,WindSpeedGustMPH,Humidity,HourlyPrecipIn,Conditions,Clouds,dailyrainin,SoftwareType,DateUTC
2013-11-06 00:02:00,30.0,31.0,27.21,WSW,247,0.0,0.0,100,0.00,,,0.00,Rainwise IP-100,2013-11-06 07:02:00,
2013-11-06 00:07:00,30.0,31.0,27.21,WSW,247,2.0,3.0,100,0.00,,,0.00,Rainwise IP-100,2013-11-06 07:07:00,
2013-11-06 00:12:00,30.0,31.0,27.21,WSW,247,0.0,2.0,100,0.00,,,0.00,Rainwise IP-100,2013-11-06 07:12:00,
2013-11-06 00:17:00,30.0,31.0,27.21,WSW,247,0.0,0.0,100,0.00,,,0.00,Rainwise IP-100,2013-11-06 07:17:00,
2013-11-06 00:22:00,30.0,31.0,27.20,WSW,247,2.0,3.0,100,0.00,,,0.00,Rainwise IP-100,2013-11-06 07:22:00,
2013-11-06 00:27:00,30.0,31.0,27.20,West,270,4.0,4.0,100,0.00,,,0.00,Rainwise IP-100,2013-11-06 07:27:00,
2013-11-06 00:32:00,30.0,31.0,27.21,West,270,3.0,5.0,100,0.00,,,0.00,Rainwise IP-100,2013-11-06 07:32:00,
2013-11-06 00:37:00,30.0,31.0,27.21,West,270,0.0,5.0,100,0.00,,,0.00,Rainwise IP-100,2013-11-06 07:37:00,
2013-11-06 00:42:00,30.0,31.0,27.22,West,270,2.0,4.0,100,0.00,,,0.00,Rainwise IP-100,2013-11-06 07:42:00,
2013-11-06 00:47:00,30.0,31.0,27.22,SE,135,3.0,4.0,100,0.00,,,0.00,Rainwise IP-100,2013-11-06 07:47:00,
2013-11-06 00:52:00,30.0,31.0,27.22,ESE,112,0.0,3.0,100,0.00,,,0.00,Rainwise IP-100,2013-11-06 07:52:00,
2013-11-06 00:57:00,30.0,31.0,27.22,ENE,67,0.0,4.0,100,0.00,,,0.00,Rainwise IP-100,2013-11-06 07:57:00,
2013-11-06 01:02:00,30.0,31.0,27.22,ENE,67,0.0,1.0,100,0.00,,,0.00,Rainwise IP-100,2013-11-06 08:02:00,
2013-11-06 01:07:00,30.0,31.0,27.22,West,270,0.0,3.0,100,0.00,,,0.00,Rainwise IP-100,2013-11-06 08:07:00,
2013-11-06 01:12:00,30.0,31.0,27.21,West,270,2.0,3.0,100,0.00,,,0.00,Rainwise IP-100,2013-11-06 08:12:00,
2013-11-06 01:17:00,30.0,31.0,27.21,West,270,1.0,3.0,100,0.00,,,0.00,Rainwise IP-100,2013-11-06 08:17:00,
2013-11-06 01:22:00,30.0,31.0,27.21,SE,135,1.0,5.0,100,0.00,,,0.00,Rainwise IP-100,2013-11-06 08:22:00,
2013-11-06 01:27:00,30.0,31.0,27.21,SW,225,0.0,3.0,100,0.00,,,0.00,Rainwise IP-100,2013-11-06 08:27:00,
2013-11-06 01:32:00,30.0,31.0,27.22,WSW,247,0.0,5.0,100,0.00,,,0.00,Rainwise IP-100,2013-11-06 08:32:00,
2013-11-06 01:37:00,30.0,31.0,27.22,WSW,247,0.0,3.0,100,0.00,,,0.00,Rainwise IP-100,2013-11-06 08:37:00,
2013-11-06 01:42:00,30.0,31.0,27.22,North,360,1.0,5.0,100,0.00,,,0.00,Rainwise IP-100,2013-11-06 08:42:00,
2013-11-06 01:47:00,30.0,31.0,27.22,North,360,0.0,3.0,100,0.00,,,0.00,Rainwise IP-100,2013-11-06 08:47:00,
2013-11-06 01:52:00,30.0,31.0,27.21,North,360,0.0,3.0,100,0.00,,,0.00,Rainwise IP-100,2013-11-06 08:52:00,
2013-11-06 01:57:00,30.0,31.0,27.21,WNW,292,2.0,5.0,100,0.00,,,0.00,Rainwise IP-100,2013-11-06 08:57:00,
2013-11-06 02:02:00,30.0,31.0,27.22,West,270,4.0,4.0,100,0.00,,,0.00,Rainwise IP-100,2013-11-06 09:02:00,
2013-11-06 02:07:00,30.0,31.0,27.22,West,270,2.0,6.0,100,0.00,,,0.00,Rainwise IP-100,2013-11-06 09:07:00,
2013-11-06 02:12:00,30.0,31.0,27.22,West,270,0.0,6.0,100,0.00,,,0.00,Rainwise IP-100,2013-11-06 09:12:00,
2013-11-06 02:17:00,30.0,31.0,27.22,West,270,0.0,1.0,100,0.00,,,0.00,Rainwise IP-100,2013-11-06 09:17:00,
2013-11-06 02:22:00,30.0,31.0,27.23,West,270,0.0,2.0,100,0.00,,,0.00,Rainwise IP-100,2013-11-06 09:22:00,
2013-11-06 02:27:00,30.0,31.0,27.23,West,270,0.0,2.0,100,0.00,,,0.00,Rainwise IP-100,2013-11-06 09:27:00,
2013-11-06 02:32:00,30.0,31.0,27.23,West,270,0.0,0.0,100,0.00,,,0.00,Rainwise IP-100,2013-11-06 09:32:00,
2013-11-06 02:37:00,30.0,31.0,27.23,West,270,0.0,0.0,100,0.00,,,0.00,Rainwise IP-100,2013-11-06 09:37:00,
2013-11-06 02:42:00,30.0,31.0,27.23,West,270,0.0,0.0,100,0.00,,,0.00,Rainwise IP-100,2013-11-06 09:42:00,
2013-11-06 02:47:00,30.0,31.0,27.23,West,270,0.0,0.0,100,0.00,,,0.00,Rainwise IP-100,2013-11-06 09:47:00,
2013-11-06 02:52:00,30.0,31.0,27.23,West,270,0.0,0.0,100,0.00,,,0.00,Rainwise IP-100,2013-11-06 09:52:00,
2013-11-06 02:57:00,30.0,31.0,27.23,West,270,0.0,0.0,100,0.00,,,0.00,Rainwise IP-100,2013-11-06 09:57:00,
2013-11-06 03:02:00,30.0,31.0,27.22,West,270,0.0,0.0,100,0.00,,,0.00,Rainwise IP-100,2013-11-06 10:02:00,
2013-11-06 03:07:00,30.0,31.0,27.22,West,270,1.0,3.0,100,0.00,,,0.00,Rainwise IP-100,2013-11-06 10:07:00,
2013-11-06 03:12:00,30.0,31.0,27.23,West,270,2.0,3.0,100,0.00,,,0.00,Rainwise IP-100,2013-11-06 10:12:00,
2013-11-06 03:17:00,30.0,31.0,27.23,West,270,0.0,2.0,100,0.00,,,0.00,Rainwise IP-100,2013-11-06 10:17:00,
2013-11-06 03:22:00,30.0,31.0,27.23,West,270,1.0,2.0,100,0.00,,,0.00,Rainwise IP-100,2013-11-06 10:22:00,
2013-11-06 03:27:00,30.0,31.0,27.23,West,270,0.0,2.0,100,0.00,,,0.00,Rainwise IP-100,2013-11-06 10:27:00,
2013-11-06 03:32:00,30.0,31.0,27.23,West,270,0.0,0.0,100,0.00,,,0.00,Rainwise IP-100,2013-11-06 10:32:00,
2013-11-06 03:37:00,30.0,31.0,27.23,West,270,0.0,0.0,100,0.00,,,0.00,Rainwise IP-100,2013-11-06 10:37:00,
2013-11-06 03:42:00,30.0,31.0,27.23,West,270,0.0,0.0,100,0.00,,,0.00,Rainwise IP-100,2013-11-06 10:42:00,
2013-11-06 03:47:00,30.0,31.0,27.23,West,270,0.0,0.0,100,0.00,,,0.00,Rainwise IP-100,2013-11-06 10:47:00,
2013-11-06 03:52:00,30.0,31.0,27.23,West,270,2.0,3.0,100,0.00,,,0.00,Rainwise IP-100,2013-11-06 10:52:00,
2013-11-06 03:57:00,30.0,31.0,27.23,West,270,0.0,2.0,100,0.00,,,0.00,Rainwise IP-100,2013-11-06 10:57:00,
2013-11-06 04:02:00,30.0,31.0,27.23,West,270,1.0,1.0,100,0.00,,,0.00,Rainwise IP-100,2013-11-06 11:02:00,
2013-11-06 04:07:00,30.0,31.0,27.23,West,270,0.0,2.0,100,0.00,,,0.00,Rainwise IP-100,2013-11-06 11:07:00,
2013-11-06 04:12:00,30.0,31.0,27.24,West,270,1.0,4.0,100,0.00,,,0.00,Rainwise IP-100,2013-11-06 11:12:00,
2013-11-06 04:17:00,30.0,31.0,27.24,West,270,0.0,2.0,100,0.00,,,0.00,Rainwise IP-100,2013-11-06 11:17:00,
2013-11-06 04:22:00,30.0,31.0,27.24,West,270,0.0,3.0,100,0.00,,,0.00,Rainwise IP-100,2013-11-06 11:22:00,
2013-11-06 04:27:00,30.0,31.0,27.24,West,270,1.0,3.0,100,0.00,,,0.00,Rainwise IP-100,2013-11-06 11:27:00,
2013-11-06 04:32:00,30.0,31.0,27.24,West,270,1.0,2.0,100,0.00,,,0.00,Rainwise IP-100,2013-11-06 11:32:00,
2013-11-06 04:37:00,30.0,31.0,27.24,West,270,0.0,3.0,100,0.00,,,0.00,Rainwise IP-100,2013-11-06 11:37:00,
2013-11-06 04:42:00,30.0,31.0,27.25,WSW,247,0.0,3.0,100,0.00,,,0.00,Rainwise IP-100,2013-11-06 11:42:00,
2013-11-06 04:47:00,30.0,31.0,27.25,WSW,247,0.0,2.0,100,0.00,,,0.00,Rainwise IP-100,2013-11-06 11:47:00,
2013-11-06 04:52:00,30.0,31.0,27.25,WSW,247,0.0,0.0,100,0.00,,,0.00,Rainwise IP-100,2013-11-06 11:52:00,
2013-11-06 04:57:00,30.0,31.0,27.25,NW,315,0.0,4.0,100,0.00,,,0.00,Rainwise IP-100,2013-11-06 11:57:00,
2013-11-06 05:02:00,30.0,31.0,27.26,NW,315,0.0,1.0,100,0.00,,,0.00,Rainwise IP-100,2013-11-06 12:02:00,
2013-11-06 05:07:00,30.0,31.0,27.26,WNW,292,0.0,4.0,100,0.00,,,0.00,Rainwise IP-100,2013-11-06 12:07:00,
2013-11-06 05:12:00,30.0,31.0,27.26,SSW,202,2.0,3.0,100,0.00,,,0.00,Rainwise IP-100,2013-11-06 12:12:00,
2013-11-06 05:17:00,30.0,31.0,27.26,SSW,202,0.0,3.0,100,0.00,,,0.00,Rainwise IP-100,2013-11-06 12:17:00,
2013-11-06 05:22:00,30.0,31.0,27.26,SSW,202,0.0,3.0,100,0.00,,,0.00,Rainwise IP-100,2013-11-06 12:22:00,
2013-11-06 05:27:00,30.0,31.0,27.26,SSW,202,0.0,0.0,100,0.00,,,0.00,Rainwise IP-100,2013-11-06 12:27:00,
2013-11-06 05:32:00,30.0,31.0,27.27,SSW,202,0.0,0.0,100,0.00,,,0.00,Rainwise IP-100,2013-11-06 12:32:00,
2013-11-06 05:37:00,30.0,31.0,27.27,SSW,202,0.0,0.0,100,0.00,,,0.00,Rainwise IP-100,2013-11-06 12:37:00,
2013-11-06 05:42:00,30.0,31.0,27.27,SSW,202,1.0,3.0,100,0.00,,,0.00,Rainwise IP-100,2013-11-06 12:42:00,
2013-11-06 05:47:00,30.0,31.0,27.27,WSW,247,3.0,3.0,100,0.00,,,0.00,Rainwise IP-100,2013-11-06 12:47:00,
2013-11-06 05:52:00,30.0,31.0,27.27,NNW,337,2.0,3.0,100,0.00,,,0.00,Rainwise IP-100,2013-11-06 12:52:00,
2013-11-06 05:57:00,30.0,31.0,27.27,NW,315,3.0,5.0,100,0.00,,,0.00,Rainwise IP-100,2013-11-06 12:57:00,
2013-11-06 06:02:00,30.0,31.0,27.27,West,270,0.0,4.0,100,0.00,,,0.00,Rainwise IP-100,2013-11-06 13:02:00,
2013-11-06 06:07:00,30.0,31.0,27.27,NW,315,3.0,4.0,100,0.00,,,0.00,Rainwise IP-100,2013-11-06 13:07:00,
2013-11-06 06:12:00,30.0,31.0,27.28,NW,315,1.0,5.0,100,0.00,,,0.00,Rainwise IP-100,2013-11-06 13:12:00,
2013-11-06 06:17:00,30.0,31.0,27.28,NW,315,0.0,2.0,100,0.00,,,0.00,Rainwise IP-100,2013-11-06 13:17:00,
2013-11-06 06:22:00,30.0,31.0,27.28,NW,315,0.0,1.0,100,0.00,,,0.00,Rainwise IP-100,2013-11-06 13:22:00,
2013-11-06 06:27:00,30.0,31.0,27.28,NW,315,0.0,0.0,100,0.00,,,0.00,Rainwise IP-100,2013-11-06 13:27:00,
2013-11-06 06:32:00,30.0,31.0,27.29,NW,315,0.0,0.0,100,0.00,,,0.00,Rainwise IP-100,2013-11-06 13:32:00,
2013-11-06 06:37:00,30.0,31.0,27.29,South,180,2.0,4.0,100,0.00,,,0.00,Rainwise IP-100,2013-11-06 13:37:00,
2013-11-06 06:42:00,30.0,31.0,27.29,South,180,0.0,3.0,100,0.00,,,0.00,Rainwise IP-100,2013-11-06 13:42:00,
2013-11-06 06:47:00,30.0,31.0,27.29,South,180,0.0,0.0,100,0.00,,,0.00,Rainwise IP-100,2013-11-06 13:47:00,
2013-11-06 06:52:00,30.0,31.0,27.29,South,180,1.0,2.0,100,0.00,,,0.00,Rainwise IP-100,2013-11-06 13:52:00,
2013-11-06 06:57:00,30.0,31.0,27.29,South,180,0.0,2.0,100,0.00,,,0.00,Rainwise IP-100,2013-11-06 13:57:00,
2013-11-06 07:02:00,30.0,31.0,27.29,South,180,0.0,0.0,100,0.00,,,0.00,Rainwise IP-100,2013-11-06 14:02:00,
2013-11-06 07:07:00,30.0,31.0,27.29,South,180,0.0,0.0,100,0.00,,,0.00,Rainwise IP-100,2013-11-06 14:07:00,
2013-11-06 07:12:00,30.0,31.0,27.30,South,180,1.0,3.0,100,0.00,,,0.00,Rainwise IP-100,2013-11-06 14:12:00,
2013-11-06 07:17:00,30.0,31.0,27.30,South,180,0.0,3.0,100,0.00,,,0.00,Rainwise IP-100,2013-11-06 14:17:00,
2013-11-06 07:22:00,30.0,31.0,27.30,South,180,0.0,1.0,100,0.00,,,0.00,Rainwise IP-100,2013-11-06 14:22:00,
2013-11-06 07:27:00,30.0,31.0,27.30,South,180,0.0,3.0,100,0.00,,,0.00,Rainwise IP-100,2013-11-06 14:27:00,
2013-11-06 07:32:00,30.0,31.0,27.30,South,180,0.0,0.0,100,0.00,,,0.00,Rainwise IP-100,2013-11-06 14:32:00,
2013-11-06 07:37:00,30.0,31.0,27.30,South,180,0.0,0.0,100,0.00,,,0.00,Rainwise IP-100,2013-11-06 14:37:00,
2013-11-06 07:42:00,30.0,31.0,27.30,South,180,0.0,0.0,100,0.00,,,0.00,Rainwise IP-100,2013-11-06 14:42:00,
2013-11-06 07:47:00,30.0,31.0,27.30,South,180,0.0,0.0,100,0.00,,,0.00,Rainwise IP-100,2013-11-06 14:47:00,
2013-11-06 07:52:00,30.0,31.0,27.30,South,180,0.0,1.0,100,0.00,,,0.00,Rainwise IP-100,2013-11-06 14:52:00,
2013-11-06 07:57:00,30.0,31.0,27.30,South,180,0.0,0.0,100,0.00,,,0.00,Rainwise IP-100,2013-11-06 14:57:00,
2013-11-06 08:02:00,30.0,31.0,27.31,SW,225,0.0,1.0,100,0.00,,,0.00,Rainwise IP-100,2013-11-06 15:02:00,
2013-11-06 08:07:00,30.0,31.0,27.31,West,270,2.0,2.0,100,0.00,,,0.00,Rainwise IP-100,2013-11-06 15:07:00,
2013-11-06 08:12:00,30.0,31.0,27.31,West,270,0.0,3.0,100,0.00,,,0.00,Rainwise IP-100,2013-11-06 15:12:00,
2013-11-06 08:17:00,30.0,31.0,27.31,West,270,0.0,1.0,100,0.00,,,0.00,Rainwise IP-100,2013-11-06 15:17:00,
2013-11-06 08:22:00,30.0,31.0,27.32,NW,315,1.0,3.0,100,0.00,,,0.00,Rainwise IP-100,2013-11-06 15:22:00,
2013-11-06 08:27:00,30.0,31.0,27.32,NW,315,0.0,2.0,100,0.00,,,0.00,Rainwise IP-100,2013-11-06 15:27:00,
2013-11-06 08:32:00,31.0,31.0,27.32,WNW,292,0.0,1.0,100,0.00,,,0.00,Rainwise IP-100,2013-11-06 15:32:00,
2013-11-06 08:37:00,31.0,31.0,27.32,West,270,0.0,3.0,100,0.00,,,0.00,Rainwise IP-100,2013-11-06 15:37:00,
2013-11-06 08:42:00,31.0,31.0,27.33,WSW,247,0.0,3.0,100,0.00,,,0.00,Rainwise IP-100,2013-11-06 15:42:00,
2013-11-06 08:47:00,31.0,31.0,27.33,WSW,247,0.0,2.0,100,0.00,,,0.00,Rainwise IP-100,2013-11-06 15:47:00,
2013-11-06 08:52:00,31.0,31.0,27.33,WSW,247,0.0,0.0,100,0.00,,,0.00,Rainwise IP-100,2013-11-06 15:52:00,
2013-11-06 08:57:00,32.0,32.0,27.33,WSW,247,0.0,0.0,100,0.00,,,0.00,Rainwise IP-100,2013-11-06 15:57:00,
2013-11-06 09:02:00,32.0,32.0,27.33,NNW,337,0.0,4.0,100,0.00,,,0.00,Rainwise IP-100,2013-11-06 16:02:00,
2013-11-06 09:07:00,32.0,32.0,27.33,NNW,337,1.0,4.0,100,0.00,,,0.00,Rainwise IP-100,2013-11-06 16:07:00,
2013-11-06 09:12:00,32.0,32.0,27.34,WNW,292,0.0,4.0,100,0.00,,,0.00,Rainwise IP-100,2013-11-06 16:12:00,
2013-11-06 09:17:00,32.0,32.0,27.34,WNW,292,0.0,0.0,100,0.00,,,0.00,Rainwise IP-100,2013-11-06 16:17:00,
2013-11-06 09:22:00,32.0,32.0,27.34,SSW,202,1.0,1.0,100,0.00,,,0.00,Rainwise IP-100,2013-11-06 16:22:00,
2013-11-06 09:27:00,33.0,33.0,27.34,SSE,157,2.0,4.0,100,0.00,,,0.00,Rainwise IP-100,2013-11-06 16:27:00,
2013-11-06 09:32:00,33.0,33.0,27.34,SSE,157,0.0,2.0,100,0.00,,,0.00,Rainwise IP-100,2013-11-06 16:32:00,
2013-11-06 09:37:00,34.0,35.0,27.34,ESE,112,2.0,3.0,100,0.00,,,0.00,Rainwise IP-100,2013-11-06 16:37:00,
2013-11-06 09:42:00,35.0,35.0,27.34,SE,135,1.0,2.0,99,0.00,,,0.00,Rainwise IP-100,2013-11-06 16:42:00,
2013-11-06 09:47:00,35.0,33.0,27.34,SSE,157,0.0,5.0,96,0.00,,,0.00,Rainwise IP-100,2013-11-06 16:47:00,
2013-11-06 09:52:00,35.0,32.0,27.35,SSE,157,2.0,2.0,91,0.00,,,0.00,Rainwise IP-100,2013-11-06 16:52:00,
2013-11-06 09:57:00,35.0,32.0,27.35,ESE,112,2.0,4.0,90,0.00,,,0.00,Rainwise IP-100,2013-11-06 16:57:00,
2013-11-06 10:02:00,35.0,32.0,27.34,ESE,112,3.0,4.0,89,0.00,,,0.00,Rainwise IP-100,2013-11-06 17:02:00,
2013-11-06 10:07:00,35.0,32.0,27.34,SSE,157,0.0,3.0,90,0.00,,,0.00,Rainwise IP-100,2013-11-06 17:07:00,
2013-11-06 10:12:00,35.0,32.0,27.35,SSW,202,0.0,1.0,91,0.00,,,0.00,Rainwise IP-100,2013-11-06 17:12:00,
2013-11-06 10:17:00,35.0,32.0,27.35,SSW,202,0.0,1.0,90,0.00,,,0.00,Rainwise IP-100,2013-11-06 17:17:00,
2013-11-06 10:22:00,35.0,32.0,27.35,WSW,247,3.0,4.0,90,0.00,,,0.00,Rainwise IP-100,2013-11-06 17:22:00,
2013-11-06 10:27:00,35.0,32.0,27.35,WNW,292,3.0,5.0,91,0.00,,,0.00,Rainwise IP-100,2013-11-06 17:27:00,
2013-11-06 10:32:00,35.0,32.0,27.36,WNW,292,0.0,5.0,90,0.00,,,0.00,Rainwise IP-100,2013-11-06 17:32:00,
2013-11-06 10:37:00,36.0,33.0,27.36,SSW,202,3.0,4.0,89,0.00,,,0.00,Rainwise IP-100,2013-11-06 17:37:00,
2013-11-06 10:42:00,35.0,32.0,27.36,WSW,247,2.0,4.0,89,0.00,,,0.00,Rainwise IP-100,2013-11-06 17:42:00,
2013-11-06 10:47:00,35.0,32.0,27.36,SW,225,0.0,4.0,89,0.00,,,0.00,Rainwise IP-100,2013-11-06 17:47:00,
2013-11-06 10:52:00,35.0,32.0,27.36,WSW,247,4.0,4.0,89,0.00,,,0.00,Rainwise IP-100,2013-11-06 17:52:00,
2013-11-06 10:57:00,35.0,32.0,27.36,West,270,1.0,4.0,89,0.00,,,0.00,Rainwise IP-100,2013-11-06 17:57:00,
2013-11-06 11:02:00,35.0,32.0,27.36,West,270,2.0,4.0,89,0.00,,,0.00,Rainwise IP-100,2013-11-06 18:02:00,
2013-11-06 11:07:00,36.0,32.0,27.36,West,270,2.0,3.0,87,0.00,,,0.00,Rainwise IP-100,2013-11-06 18:07:00,
2013-11-06 11:12:00,36.0,32.0,27.36,West,270,3.0,3.0,87,0.00,,,0.00,Rainwise IP-100,2013-11-06 18:12:00,
2013-11-06 11:17:00,36.0,32.0,27.36,West,270,0.0,3.0,87,0.00,,,0.00,Rainwise IP-100,2013-11-06 18:17:00,
2013-11-06 11:22:00,37.0,33.0,27.36,West,270,2.0,2.0,86,0.00,,,0.00,Rainwise IP-100,2013-11-06 18:22:00,
2013-11-06 11:27:00,38.0,33.0,27.36,West,270,0.0,3.0,81,0.00,,,0.00,Rainwise IP-100,2013-11-06 18:27:00,
2013-11-06 11:32:00,40.0,35.0,27.36,SE,135,0.0,1.0,79,0.00,,,0.00,Rainwise IP-100,2013-11-06 18:32:00,
2013-11-06 11:37:00,42.0,35.0,27.36,North,360,2.0,6.0,75,0.00,,,0.00,Rainwise IP-100,2013-11-06 18:37:00,
2013-11-06 11:42:00,42.0,35.0,27.35,North,360,3.0,3.0,73,0.00,,,0.00,Rainwise IP-100,2013-11-06 18:42:00,
2013-11-06 11:47:00,41.0,33.0,27.35,NW,315,0.0,6.0,73,0.00,,,0.00,Rainwise IP-100,2013-11-06 18:47:00,
2013-11-06 11:52:00,40.0,33.0,27.36,WSW,247,2.0,6.0,76,0.00,,,0.00,Rainwise IP-100,2013-11-06 18:52:00,
2013-11-06 11:57:00,40.0,33.0,27.36,West,270,0.0,6.0,76,0.18,,,0.03,Rainwise IP-100,2013-11-06 18:57:00,
2013-11-06 12:02:00,39.0,33.0,27.36,SW,225,1.0,6.0,78,0.24,,,0.04,Rainwise IP-100,2013-11-06 19:02:00,
2013-11-06 12:07:00,39.0,32.0,27.36,NW,315,5.0,5.0,77,0.12,,,0.05,Rainwise IP-100,2013-11-06 19:07:00,
2013-11-06 12:12:00,40.0,33.0,27.36,NE,45,2.0,5.0,75,0.12,,,0.07,Rainwise IP-100,2013-11-06 19:12:00,
2013-11-06 12:17:00,42.0,35.0,27.36,SSE,157,2.0,4.0,74,0.12,,,0.08,Rainwise IP-100,2013-11-06 19:17:00,
2013-11-06 12:22:00,43.0,35.0,27.35,SW,225,0.0,3.0,71,0.18,,,0.09,Rainwise IP-100,2013-11-06 19:22:00,
2013-11-06 12:27:00,43.0,35.0,27.35,NNW,337,1.0,5.0,71,0.12,,,0.10,Rainwise IP-100,2013-11-06 19:27:00,
2013-11-06 12:32:00,42.0,33.0,27.35,NW,315,5.0,5.0,71,0.06,,,0.10,Rainwise IP-100,2013-11-06 19:32:00,
2013-11-06 12:37:00,42.0,33.0,27.35,North,360,1.0,5.0,72,0.12,,,0.11,Rainwise IP-100,2013-11-06 19:37:00,
2013-11-06 12:42:00,42.0,35.0,27.35,North,360,0.0,4.0,74,0.12,,,0.12,Rainwise IP-100,2013-11-06 19:42:00,
2013-11-06 12:47:00,42.0,33.0,27.35,WNW,292,1.0,5.0,71,0.06,,,0.12,Rainwise IP-100,2013-11-06 19:47:00,
2013-11-06 12:52:00,43.0,36.0,27.34,NW,315,3.0,5.0,75,0.06,,,0.13,Rainwise IP-100,2013-11-06 19:52:00,
2013-11-06 12:57:00,44.0,36.0,27.34,NW,315,5.0,5.0,71,0.06,,,0.14,Rainwise IP-100,2013-11-06 19:57:00,
2013-11-06 13:02:00,43.0,33.0,27.35,North,360,0.0,6.0,69,0.06,,,0.14,Rainwise IP-100,2013-11-06 20:02:00,
2013-11-06 13:07:00,42.0,33.0,27.35,West,270,5.0,5.0,71,0.12,,,0.15,Rainwise IP-100,2013-11-06 20:07:00,
2013-11-06 13:12:00,42.0,33.0,27.36,West,270,1.0,5.0,71,0.06,,,0.15,Rainwise IP-100,2013-11-06 20:12:00,
2013-11-06 13:17:00,42.0,33.0,27.36,WSW,247,0.0,4.0,71,0.00,,,0.15,Rainwise IP-100,2013-11-06 20:17:00,
2013-11-06 13:22:00,43.0,33.0,27.35,WSW,247,0.0,3.0,69,0.00,,,0.15,Rainwise IP-100,2013-11-06 20:22:00,
2013-11-06 13:27:00,44.0,35.0,27.35,SSW,202,2.0,2.0,70,0.06,,,0.16,Rainwise IP-100,2013-11-06 20:27:00,
2013-11-06 13:32:00,43.0,33.0,27.35,WSW,247,1.0,5.0,69,0.06,,,0.16,Rainwise IP-100,2013-11-06 20:32:00,
2013-11-06 13:37:00,43.0,35.0,27.35,West,270,1.0,3.0,70,0.00,,,0.16,Rainwise IP-100,2013-11-06 20:37:00,
2013-11-06 13:42:00,44.0,33.0,27.35,West,270,0.0,3.0,67,0.00,,,0.17,Rainwise IP-100,2013-11-06 20:42:00,
2013-11-06 13:47:00,43.0,33.0,27.35,West,270,0.0,2.0,68,0.06,,,0.17,Rainwise IP-100,2013-11-06 20:47:00,
2013-11-06 13:52:00,43.0,35.0,27.35,WSW,247,2.0,3.0,70,0.06,,,0.17,Rainwise IP-100,2013-11-06 20:52:00,
2013-11-06 13:57:00,42.0,33.0,27.35,West,270,2.0,6.0,71,0.00,,,0.17,Rainwise IP-100,2013-11-06 20:57:00,
2013-11-06 14:02:00,42.0,33.0,27.35,West,270,3.0,4.0,72,0.00,,,0.17,Rainwise IP-100,2013-11-06 21:02:00,
2013-11-06 14:07:00,41.0,33.0,27.35,WSW,247,2.0,6.0,74,0.00,,,0.17,Rainwise IP-100,2013-11-06 21:07:00,
2013-11-06 14:12:00,41.0,35.0,27.35,WSW,247,3.0,4.0,75,0.00,,,0.17,Rainwise IP-100,2013-11-06 21:12:00,
2013-11-06 14:17:00,42.0,35.0,27.35,SW,225,2.0,4.0,73,0.00,,,0.17,Rainwise IP-100,2013-11-06 21:17:00,
2013-11-06 14:22:00,41.0,33.0,27.34,West,270,2.0,4.0,73,0.00,,,0.17,Rainwise IP-100,2013-11-06 21:22:00,
2013-11-06 14:27:00,41.0,33.0,27.34,NE,45,1.0,3.0,73,0.00,,,0.17,Rainwise IP-100,2013-11-06 21:27:00,
2013-11-06 14:32:00,41.0,33.0,27.35,NE,45,0.0,4.0,72,0.06,,,0.18,Rainwise IP-100,2013-11-06 21:32:00,
2013-11-06 14:37:00,42.0,35.0,27.35,ESE,112,1.0,3.0,73,0.06,,,0.18,Rainwise IP-100,2013-11-06 21:37:00,
2013-11-06 14:42:00,42.0,33.0,27.34,ESE,112,1.0,3.0,71,0.00,,,0.18,Rainwise IP-100,2013-11-06 21:42:00,
2013-11-06 14:47:00,41.0,32.0,27.34,East,90,1.0,2.0,71,0.00,,,0.18,Rainwise IP-100,2013-11-06 21:47:00,
2013-11-06 14:52:00,41.0,32.0,27.34,East,90,0.0,2.0,71,0.00,,,0.18,Rainwise IP-100,2013-11-06 21:52:00,
2013-11-06 14:57:00,42.0,33.0,27.34,East,90,0.0,0.0,72,0.00,,,0.18,Rainwise IP-100,2013-11-06 21:57:00,
2013-11-06 15:02:00,42.0,33.0,27.34,East,90,1.0,2.0,71,0.00,,,0.18,Rainwise IP-100,2013-11-06 22:02:00,
2013-11-06 15:07:00,42.0,33.0,27.34,East,90,0.0,2.0,72,0.00,,,0.18,Rainwise IP-100,2013-11-06 22:07:00,
2013-11-06 15:12:00,42.0,33.0,27.34,East,90,0.0,0.0,72,0.00,,,0.18,Rainwise IP-100,2013-11-06 22:12:00,
2013-11-06 15:17:00,42.0,35.0,27.34,East,90,0.0,0.0,73,0.00,,,0.18,Rainwise IP-100,2013-11-06 22:17:00,
2013-11-06 15:22:00,42.0,35.0,27.34,East,90,0.0,0.0,73,0.00,,,0.18,Rainwise IP-100,2013-11-06 22:22:00,
2013-11-06 15:27:00,42.0,35.0,27.34,East,90,0.0,0.0,73,0.00,,,0.18,Rainwise IP-100,2013-11-06 22:27:00,
2013-11-06 15:32:00,42.0,33.0,27.34,East,90,0.0,0.0,72,0.00,,,0.18,Rainwise IP-100,2013-11-06 22:32:00,
2013-11-06 15:37:00,42.0,35.0,27.34,East,90,0.0,0.0,73,0.00,,,0.18,Rainwise IP-100,2013-11-06 22:37:00,
2013-11-06 15:42:00,42.0,33.0,27.34,East,90,0.0,0.0,72,0.00,,,0.18,Rainwise IP-100,2013-11-06 22:42:00,
2013-11-06 15:47:00,42.0,33.0,27.34,East,90,0.0,0.0,72,0.00,,,0.18,Rainwise IP-100,2013-11-06 22:47:00,
2013-11-06 15:52:00,42.0,33.0,27.34,East,90,0.0,0.0,71,0.00,,,0.18,Rainwise IP-100,2013-11-06 22:52:00,
2013-11-06 15:57:00,42.0,33.0,27.34,SE,135,4.0,4.0,70,0.00,,,0.18,Rainwise IP-100,2013-11-06 22:57:00,
2013-11-06 16:02:00,42.0,33.0,27.34,SE,135,0.0,4.0,71,0.00,,,0.18,Rainwise IP-100,2013-11-06 23:02:00,
2013-11-06 16:07:00,42.0,33.0,27.34,SE,135,0.0,2.0,71,0.00,,,0.18,Rainwise IP-100,2013-11-06 23:07:00,
2013-11-06 16:12:00,42.0,33.0,27.34,SE,135,2.0,3.0,71,0.00,,,0.18,Rainwise IP-100,2013-11-06 23:12:00,
2013-11-06 16:17:00,41.0,32.0,27.34,SE,135,0.0,3.0,71,0.00,,,0.18,Rainwise IP-100,2013-11-06 23:17:00,
2013-11-06 16:22:00,41.0,32.0,27.34,SE,135,0.0,2.0,71,0.00,,,0.18,Rainwise IP-100,2013-11-06 23:22:00,
2013-11-06 16:27:00,41.0,33.0,27.34,SE,135,1.0,3.0,73,0.00,,,0.18,Rainwise IP-100,2013-11-06 23:27:00,
2013-11-06 16:32:00,41.0,33.0,27.34,SSE,157,3.0,4.0,73,0.00,,,0.18,Rainwise IP-100,2013-11-06 23:32:00,
2013-11-06 16:37:00,41.0,33.0,27.34,South,180,1.0,4.0,73,0.00,,,0.18,Rainwise IP-100,2013-11-06 23:37:00,
2013-11-06 16:42:00,41.0,33.0,27.35,South,180,0.0,2.0,73,0.00,,,0.18,Rainwise IP-100,2013-11-06 23:42:00,
2013-11-06 16:47:00,41.0,33.0,27.35,SW,225,0.0,0.0,74,0.00,,,0.18,Rainwise IP-100,2013-11-06 23:47:00,
2013-11-06 16:52:00,41.0,33.0,27.35,SW,225,0.0,0.0,73,0.00,,,0.18,Rainwise IP-100,2013-11-06 23:52:00,
2013-11-06 16:57:00,40.0,32.0,27.35,SW,225,0.0,0.0,72,0.00,,,0.18,Rainwise IP-100,2013-11-06 23:57:00,
2013-11-06 17:02:00,40.0,32.0,27.35,SW,225,0.0,0.0,73,0.00,,,0.18,Rainwise IP-100,2013-11-07 00:02:00,
2013-11-06 17:07:00,39.0,32.0,27.35,SW,225,0.0,0.0,74,0.00,,,0.18,Rainwise IP-100,2013-11-07 00:07:00,
2013-11-06 17:12:00,39.0,32.0,27.35,SW,225,0.0,0.0,76,0.00,,,0.18,Rainwise IP-100,2013-11-07 00:12:00,
2013-11-06 17:17:00,39.0,32.0,27.35,SW,225,0.0,0.0,76,0.00,,,0.18,Rainwise IP-100,2013-11-07 00:17:00,
2013-11-06 17:22:00,39.0,32.0,27.35,WNW,292,0.0,5.0,73,0.00,,,0.18,Rainwise IP-100,2013-11-07 00:22:00,
2013-11-06 17:27:00,39.0,32.0,27.35,WNW,292,0.0,3.0,75,0.00,,,0.18,Rainwise IP-100,2013-11-07 00:27:00,
2013-11-06 17:32:00,39.0,32.0,27.35,WNW,292,0.0,0.0,76,0.00,,,0.18,Rainwise IP-100,2013-11-07 00:32:00,
2013-11-06 17:37:00,39.0,32.0,27.35,WNW,292,0.0,0.0,76,0.00,,,0.18,Rainwise IP-100,2013-11-07 00:37:00,
2013-11-06 17:42:00,38.0,31.0,27.35,WNW,292,0.0,0.0,75,0.00,,,0.18,Rainwise IP-100,2013-11-07 00:42:00,
2013-11-06 17:47:00,38.0,31.0,27.35,WNW,292,0.0,0.0,76,0.00,,,0.18,Rainwise IP-100,2013-11-07 00:47:00,
2013-11-06 17:52:00,38.0,32.0,27.36,WNW,292,0.0,0.0,77,0.00,,,0.18,Rainwise IP-100,2013-11-07 00:52:00,
2013-11-06 17:57:00,38.0,32.0,27.36,WNW,292,0.0,0.0,77,0.00,,,0.18,Rainwise IP-100,2013-11-07 00:57:00,
2013-11-06 18:02:00,37.0,32.0,27.35,WNW,292,0.0,0.0,80,0.00,,,0.18,Rainwise IP-100,2013-11-07 01:02:00,
2013-11-06 18:07:00,37.0,32.0,27.35,WNW,292,0.0,0.0,82,0.00,,,0.18,Rainwise IP-100,2013-11-07 01:07:00,
2013-11-06 18:12:00,37.0,32.0,27.35,WNW,292,0.0,0.0,82,0.00,,,0.18,Rainwise IP-100,2013-11-07 01:12:00,
2013-11-06 18:17:00,37.0,32.0,27.35,SSE,157,2.0,2.0,84,0.00,,,0.18,Rainwise IP-100,2013-11-07 01:17:00,
2013-11-06 18:22:00,37.0,32.0,27.36,SSE,157,0.0,3.0,83,0.00,,,0.18,Rainwise IP-100,2013-11-07 01:22:00,
2013-11-06 18:27:00,37.0,32.0,27.36,SE,135,1.0,3.0,84,0.00,,,0.18,Rainwise IP-100,2013-11-07 01:27:00,
2013-11-06 18:32:00,37.0,32.0,27.36,ESE,112,0.0,2.0,84,0.00,,,0.18,Rainwise IP-100,2013-11-07 01:32:00,
2013-11-06 18:37:00,37.0,33.0,27.36,ESE,112,0.0,2.0,85,0.00,,,0.18,Rainwise IP-100,2013-11-07 01:37:00,
2013-11-06 18:42:00,37.0,32.0,27.36,ESE,112,0.0,1.0,84,0.00,,,0.18,Rainwise IP-100,2013-11-07 01:42:00,
2013-11-06 18:47:00,37.0,33.0,27.36,ESE,112,0.0,0.0,85,0.00,,,0.18,Rainwise IP-100,2013-11-07 01:47:00,
2013-11-06 18:52:00,36.0,32.0,27.37,ESE,112,0.0,0.0,84,0.00,,,0.18,Rainwise IP-100,2013-11-07 01:52:00,
2013-11-06 18:57:00,36.0,32.0,27.37,ESE,112,0.0,0.0,84,0.00,,,0.18,Rainwise IP-100,2013-11-07 01:57:00,
2013-11-06 19:02:00,36.0,32.0,27.37,ESE,112,0.0,0.0,84,0.00,,,0.18,Rainwise IP-100,2013-11-07 02:02:00,
2013-11-06 19:07:00,36.0,32.0,27.37,ESE,112,0.0,0.0,86,0.00,,,0.18,Rainwise IP-100,2013-11-07 02:07:00,
2013-11-06 19:12:00,36.0,32.0,27.37,ESE,112,0.0,0.0,86,0.00,,,0.18,Rainwise IP-100,2013-11-07 02:12:00,
2013-11-06 19:17:00,35.0,31.0,27.37,ESE,112,0.0,0.0,86,0.00,,,0.18,Rainwise IP-100,2013-11-07 02:17:00,
2013-11-06 19:22:00,35.0,31.0,27.37,ESE,112,0.0,0.0,87,0.00,,,0.18,Rainwise IP-100,2013-11-07 02:22:00,
2013-11-06 19:27:00,35.0,31.0,27.37,ESE,112,0.0,0.0,87,0.00,,,0.18,Rainwise IP-100,2013-11-07 02:27:00,
2013-11-06 19:32:00,34.0,32.0,27.37,ESE,112,0.0,0.0,88,0.00,,,0.18,Rainwise IP-100,2013-11-07 02:32:00,
2013-11-06 19:37:00,35.0,32.0,27.37,ESE,112,0.0,2.0,88,0.00,,,0.18,Rainwise IP-100,2013-11-07 02:37:00,
2013-11-06 19:42:00,35.0,31.0,27.37,ESE,112,0.0,1.0,87,0.00,,,0.18,Rainwise IP-100,2013-11-07 02:42:00,
2013-11-06 19:47:00,35.0,31.0,27.37,ESE,112,0.0,0.0,87,0.00,,,0.18,Rainwise IP-100,2013-11-07 02:47:00,
2013-11-06 19:52:00,35.0,32.0,27.37,ESE,112,0.0,0.0,88,0.00,,,0.18,Rainwise IP-100,2013-11-07 02:52:00,
2013-11-06 19:57:00,35.0,32.0,27.37,ESE,112,0.0,0.0,89,0.00,,,0.18,Rainwise IP-100,2013-11-07 02:57:00,
2013-11-06 20:02:00,35.0,32.0,27.37,ESE,112,0.0,2.0,89,0.00,,,0.18,Rainwise IP-100,2013-11-07 03:02:00,
2013-11-06 20:07:00,35.0,32.0,27.37,ESE,112,0.0,3.0,88,0.00,,,0.18,Rainwise IP-100,2013-11-07 03:07:00,
2013-11-06 20:12:00,35.0,31.0,27.37,ESE,112,0.0,0.0,87,0.00,,,0.18,Rainwise IP-100,2013-11-07 03:12:00,
2013-11-06 20:17:00,35.0,31.0,27.37,ESE,112,0.0,0.0,87,0.00,,,0.18,Rainwise IP-100,2013-11-07 03:17:00,
2013-11-06 20:22:00,34.0,31.0,27.38,ESE,112,0.0,0.0,87,0.00,,,0.18,Rainwise IP-100,2013-11-07 03:22:00,
2013-11-06 20:27:00,34.0,31.0,27.38,ESE,112,0.0,0.0,86,0.00,,,0.18,Rainwise IP-100,2013-11-07 03:27:00,
2013-11-06 20:32:00,35.0,31.0,27.37,ESE,112,1.0,2.0,87,0.00,,,0.18,Rainwise IP-100,2013-11-07 03:32:00,
2013-11-06 20:37:00,35.0,31.0,27.37,South,180,1.0,3.0,86,0.00,,,0.18,Rainwise IP-100,2013-11-07 03:37:00,
2013-11-06 20:42:00,35.0,31.0,27.38,South,180,0.0,2.0,86,0.00,,,0.18,Rainwise IP-100,2013-11-07 03:42:00,
2013-11-06 20:47:00,34.0,31.0,27.38,South,180,0.0,0.0,87,0.00,,,0.18,Rainwise IP-100,2013-11-07 03:47:00,
2013-11-06 20:52:00,34.0,31.0,27.38,South,180,0.0,0.0,87,0.00,,,0.18,Rainwise IP-100,2013-11-07 03:52:00,
2013-11-06 20:57:00,34.0,31.0,27.38,South,180,0.0,0.0,87,0.00,,,0.18,Rainwise IP-100,2013-11-07 03:57:00,
2013-11-06 21:02:00,34.0,32.0,27.38,South,180,0.0,0.0,89,0.00,,,0.18,Rainwise IP-100,2013-11-07 04:02:00,
2013-11-06 21:07:00,34.0,32.0,27.38,West,270,0.0,0.0,89,0.00,,,0.18,Rainwise IP-100,2013-11-07 04:07:00,
2013-11-06 21:12:00,34.0,32.0,27.38,West,270,0.0,0.0,89,0.00,,,0.18,Rainwise IP-100,2013-11-07 04:12:00,
2013-11-06 21:17:00,34.0,32.0,27.38,West,270,0.0,0.0,89,0.00,,,0.18,Rainwise IP-100,2013-11-07 04:17:00,
2013-11-06 21:22:00,34.0,32.0,27.38,West,270,0.0,0.0,89,0.00,,,0.18,Rainwise IP-100,2013-11-07 04:22:00,
2013-11-06 21:27:00,35.0,31.0,27.38,ESE,112,3.0,7.0,87,0.00,,,0.18,Rainwise IP-100,2013-11-07 04:27:00,
2013-11-06 21:32:00,35.0,31.0,27.38,ESE,112,4.0,7.0,86,0.00,,,0.18,Rainwise IP-100,2013-11-07 04:32:00,
2013-11-06 21:37:00,35.0,31.0,27.38,East,90,3.0,6.0,85,0.00,,,0.18,Rainwise IP-100,2013-11-07 04:37:00,
2013-11-06 21:42:00,35.0,31.0,27.38,East,90,0.0,3.0,85,0.00,,,0.18,Rainwise IP-100,2013-11-07 04:42:00,
2013-11-06 21:47:00,35.0,31.0,27.38,East,90,0.0,0.0,84,0.00,,,0.18,Rainwise IP-100,2013-11-07 04:47:00,
2013-11-06 21:52:00,35.0,31.0,27.38,East,90,0.0,0.0,86,0.00,,,0.18,Rainwise IP-100,2013-11-07 04:52:00,
2013-11-06 21:57:00,35.0,31.0,27.38,East,90,0.0,0.0,86,0.00,,,0.18,Rainwise IP-100,2013-11-07 04:57:00,
2013-11-06 22:01:00,35.0,31.0,27.38,East,90,0.0,0.0,86,0.00,,,0.18,Rainwise IP-100,2013-11-07 05:01:00,
2013-11-06 22:02:00,35.0,31.0,27.38,East,90,0.0,0.0,86,0.00,,,0.18,Rainwise IP-100,2013-11-07 05:02:00,
2013-11-06 22:07:00,35.0,31.0,27.38,East,90,0.0,0.0,87,0.00,,,0.18,Rainwise IP-100,2013-11-07 05:07:00,
2013-11-06 22:12:00,35.0,32.0,27.39,East,90,1.0,0.0,88,0.00,,,0.18,Rainwise IP-100,2013-11-07 05:12:00,
2013-11-06 22:17:00,35.0,31.0,27.39,East,90,0.0,2.0,87,0.00,,,0.18,Rainwise IP-100,2013-11-07 05:17:00,
2013-11-06 22:22:00,35.0,31.0,27.39,East,90,0.0,0.0,87,0.00,,,0.18,Rainwise IP-100,2013-11-07 05:22:00,
2013-11-06 22:27:00,35.0,31.0,27.39,East,90,0.0,0.0,87,0.00,,,0.18,Rainwise IP-100,2013-11-07 05:27:00,
2013-11-06 22:32:00,35.0,32.0,27.39,East,90,0.0,0.0,88,0.00,,,0.18,Rainwise IP-100,2013-11-07 05:32:00,
2013-11-06 22:37:00,35.0,32.0,27.39,East,90,0.0,0.0,89,0.00,,,0.18,Rainwise IP-100,2013-11-07 05:37:00,
2013-11-06 22:42:00,35.0,32.0,27.38,East,90,0.0,0.0,89,0.00,,,0.18,Rainwise IP-100,2013-11-07 05:42:00,
2013-11-06 22:47:00,35.0,32.0,27.38,East,90,0.0,0.0,89,0.00,,,0.18,Rainwise IP-100,2013-11-07 05:47:00,
2013-11-06 22:52:00,35.0,32.0,27.38,East,90,0.0,0.0,89,0.00,,,0.18,Rainwise IP-100,2013-11-07 05:52:00,
2013-11-06 22:57:00,35.0,32.0,27.38,East,90,0.0,0.0,89,0.00,,,0.18,Rainwise IP-100,2013-11-07 05:57:00,
2013-11-06 23:02:00,35.0,32.0,27.38,East,90,0.0,3.0,89,0.00,,,0.18,Rainwise IP-100,2013-11-07 06:02:00,
2013-11-06 23:07:00,35.0,32.0,27.38,East,90,0.0,0.0,89,0.00,,,0.18,Rainwise IP-100,2013-11-07 06:07:00,
2013-11-06 23:12:00,35.0,32.0,27.38,East,90,0.0,0.0,90,0.00,,,0.18,Rainwise IP-100,2013-11-07 06:12:00,
2013-11-06 23:17:00,35.0,32.0,27.38,East,90,0.0,0.0,89,0.00,,,0.18,Rainwise IP-100,2013-11-07 06:17:00,
2013-11-06 23:22:00,35.0,32.0,27.38,East,90,0.0,0.0,89,0.00,,,0.18,Rainwise IP-100,2013-11-07 06:22:00,
2013-11-06 23:27:00,35.0,32.0,27.38,East,90,0.0,0.0,90,0.00,,,0.18,Rainwise IP-100,2013-11-07 06:27:00,
2013-11-06 23:32:00,35.0,32.0,27.37,NW,315,1.0,2.0,90,0.00,,,0.18,Rainwise IP-100,2013-11-07 06:32:00,
2013-11-06 23:37:00,35.0,32.0,27.37,North,360,2.0,3.0,89,0.00,,,0.18,Rainwise IP-100,2013-11-07 06:37:00,
2013-11-06 23:42:00,35.0,31.0,27.37,ESE,112,4.0,7.0,84,0.00,,,0.18,Rainwise IP-100,2013-11-07 06:42:00,
2013-11-06 23:47:00,36.0,31.0,27.37,ESE,112,5.0,7.0,83,0.00,,,0.18,Rainwise IP-100,2013-11-07 06:47:00,
2013-11-06 23:52:00,36.0,31.0,27.37,ESE,112,0.0,5.0,82,0.00,,,0.18,Rainwise IP-100,2013-11-07 06:52:00,
2013-11-06 23:57:00,36.0,31.0,27.37,NE,45,2.0,4.0,82,0.00,,,0.18,Rainwise IP-100,2013-11-07 06:57:00,